Regional Weather Roundup
Issued by NWS

Home | Current Version | Previous Version | Graphics & Text | Print | Product List | Glossary On
Versions: 1 2 3 4 5 6 7 8 9 10 11 12 13 14 15 16 17 18 19 20 21 22 23 24 25 26 27 28 29 30 31 32 33 34 35 36 37 38 39 40 41 42 43 44 45 46 47 48 49 50
168
ASUS43 KFSD 260010
RWRSD

WEATHER ROUNDUP FOR SOUTH DAKOTA
NATIONAL WEATHER SERVICE SIOUX FALLS SD
600 PM CST SAT FEB 25 2017

NOTE: "FAIR" INDICATES FEW OR NO CLOUDS BELOW 12,000 FEET WITH NO
SIGNIFICANT WEATHER AND/OR OBSTRUCTIONS TO VISIBILITY.


SDZ001>005-009-010-012>017-260100-
NORTHWEST AND NORTH CENTRAL SOUTH DAKOTA

CITY           SKY/WX    TMP DP  RH WIND       PRES   REMARKS
BUFFALO          N/A     29  22  75 W18       29.61F WCI  16
FAITH            N/A     31  19  61 CALM      29.71F
MOBRIDGE       CLEAR     32  20  61 NE3       29.73F
$$

SDZ012>016-024>037-041>051-057-063-072>074-260100-
SOUTHWEST AND SOUTH CENTRAL SOUTH DAKOTA

CITY           SKY/WX    TMP DP  RH WIND       PRES   REMARKS
RAPID CTY ARPT CLEAR     30  22  72 N9        29.71F WCI  22
PIERRE         CLEAR     34  24  67 N8        29.76F WCI  27
CUSTER         CLEAR     18   6  59 W10G18    29.63F WCI   6
ELLSWORTH AFB  PTCLDY    29  23  76 NE3       29.71F
PHILIP         CLOUDY    33  22  63 SW10      29.76F WCI  25
PINE RIDGE     CLEAR     25  14  63 SW9       29.77F WCI  15
SPEARFISH      FAIR      30  14  51 W14       29.68F WCI  20
WINNER         FAIR      33  23  66 SW12      29.79F WCI  24
$$

SDZ004>011-016>023-039-040-260100-
NORTHEAST SOUTH DAKOTA

CITY           SKY/WX    TMP DP  RH WIND       PRES   REMARKS
ABERDEEN       CLOUDY    30  23  75 N10       29.76F WCI  21
WATERTOWN      CLOUDY    31  21  66 S14       29.75F WCI  21
BROOKINGS      PTCLDY    28  19  69 S15G23    29.80F WCI  16
SISSETON         N/A     31  28  89 N13       29.75S WCI  21
$$

SDZ017-020-022-023-036>040-048>070-260100-
SOUTHEAST SOUTH DAKOTA

CITY           SKY/WX    TMP DP  RH WIND       PRES   REMARKS
SIOUX FALLS    MOCLDY    27  18  69 S13       29.85F WCI  16
HURON          CLOUDY    33  22  63 S9G20     29.79S WCI  25
CHAMBERLAIN    MOCLDY    37  25  61 W6        29.78F
MITCHELL       CLOUDY    30  21  69 SW13      29.83F WCI  20
YANKTON        PTCLDY    28  18  64 S9        29.86F WCI  20
$$

ABBREVIATIONS USED IN REMARKS
   TC - TEMPERATURE IN CELSIUS
  WCI - WIND CHILL INDEX
   HX - HEAT INDEX
  VSB - VISIBILITY





USA.gov is the U.S. government's official web portal to all federal, state and local government web resources and services.